Le nostre stazioni meteo in Italia

Pubblicità
Il mio iltempo24.it
Palermo/Punta Raisi, Italia (16405): Temperatura & dewpoint: 17.08.2017 09:00:00 - 23.08.2017 09:00:00 (CEST)Palermo/Punta Raisi, Italia (16405): velocità del vento: 17.08.2017 09:00:00 - 23.08.2017 09:00:00 (CEST)Palermo/Punta Raisi, Italia (16405): direzione del vento: 17.08.2017 09:00:00 - 23.08.2017 09:00:00 (CEST)Palermo/Punta Raisi, Italia (16405): reduced air pressure: 17.08.2017 09:00:00 - 23.08.2017 09:00:00 (CEST)Palermo/Punta Raisi, Italia (16405): visibility: 17.08.2017 09:00:00 - 23.08.2017 09:00:00 (CEST)Palermo/Punta Raisi, Italia (16405): precipitazioni: 17.08.2017 09:00:00 - 23.08.2017 09:00:00 (CEST)
Data & Tempo tt [°C] td [°C] ff [km/h] ff [kn] dd ppp [hPa] vv [km] rr [mm]
23.08.2017 09:00:00 27,0 17,0 13 7 E - 10 -
23.08.2017 08:00:00 26,6 16,9 11 6 E 1016,6 10 -
23.08.2017 07:00:00 24,0 17,0 11 6 E - 10 -
23.08.2017 06:00:00 25,0 17,0 13 7 E - 10 -
23.08.2017 05:00:00 24,8 16,8 13 7 E 1015,3 10 0,0
23.08.2017 04:00:00 25,0 17,0 15 8 ENE - 10 -
23.08.2017 03:00:00 26,0 18,0 16 9 ENE - 10 -
23.08.2017 02:00:00 25,6 17,8 13 7 E 1015,4 10 -
23.08.2017 01:00:00 - - - - - - - -
23.08.2017 00:00:00 26,0 17,0 11 6 E - 10 -
22.08.2017 23:00:00 26,3 17,4 13 7 ENE 1015,4 10 0,0
22.08.2017 22:00:00 26,0 20,0 15 8 NNE - 10 -
22.08.2017 21:00:00 27,0 20,0 15 8 NNE - 10 -
22.08.2017 20:00:00 26,6 19,6 13 7 N 1015,1 10 -
22.08.2017 19:00:00 28,0 20,0 13 7 N - 10 -
22.08.2017 18:00:00 28,0 20,0 13 7 N - 10 -
22.08.2017 17:00:00 28,0 19,9 15 8 NNO 1015,5 10 0,0
22.08.2017 16:00:00 28,0 19,0 16 9 NNO - 10 -
22.08.2017 15:00:00 28,0 20,0 16 9 N - 10 -
22.08.2017 14:00:00 28,2 19,1 15 8 N 1016,2 10 -
22.08.2017 13:00:00 29,0 19,0 11 6 N - 10 -
22.08.2017 12:00:00 28,0 19,0 9 5 NNO - 10 -
22.08.2017 11:00:00 28,3 18,8 8 4 N 1016,4 10 0,0
22.08.2017 10:00:00 28,0 18,0 8 4 NO - 10 -
22.08.2017 09:00:00 27,0 19,0 8 4 N - 10 -
22.08.2017 08:00:00 26,7 18,6 13 7 NNE 1015,8 10 -
22.08.2017 07:00:00 26,0 18,0 13 7 NE - 10 -
22.08.2017 06:00:00 26,0 19,0 5 3 NNE - 10 -
22.08.2017 05:00:00 25,9 18,8 5 3 ENE 1014,8 10 0,0
22.08.2017 04:00:00 26,0 19,0 4 2 E - 10 -
22.08.2017 03:00:00 26,0 19,0 8 4 ENE - 10 -
22.08.2017 02:00:00 25,7 18,7 11 6 NE 1014,6 10 -
22.08.2017 01:00:00 26,0 20,0 13 7 NE - 10 -
22.08.2017 00:00:00 27,0 21,0 13 7 N - 10 -
21.08.2017 23:00:00 26,3 19,9 11 6 NNE 1014,8 10 0,0
21.08.2017 22:00:00 27,0 20,0 9 5 NNE - 10 -
21.08.2017 21:00:00 27,0 20,0 9 5 N - 10 -
21.08.2017 20:00:00 26,7 19,5 11 6 N 1013,9 10 -
21.08.2017 19:00:00 27,0 20,0 11 6 N - 10 -
21.08.2017 18:00:00 28,0 20,0 11 6 N - 10 -
21.08.2017 17:00:00 28,1 19,3 11 6 NO 1013,5 10 0,0
21.08.2017 16:00:00 28,0 20,0 13 7 NO - 10 -
21.08.2017 15:00:00 28,0 20,0 8 4 NNO - 10 -
21.08.2017 14:00:00 27,8 19,6 9 5 N 1014,5 10 -
21.08.2017 13:00:00 27,0 20,0 15 8 N - 10 -
21.08.2017 12:00:00 28,0 20,0 15 8 NNO - 10 -
21.08.2017 11:00:00 27,2 20,6 16 9 NNO 1014,6 10 0,0
21.08.2017 10:00:00 27,0 19,0 11 6 N - 10 -
21.08.2017 09:00:00 27,0 20,0 9 5 N - 10 -
21.08.2017 08:00:00 26,0 20,0 8 4 N - 10 -
21.08.2017 07:00:00 26,0 20,0 13 7 NNO - 10 -
21.08.2017 06:00:00 26,0 20,0 11 6 NNO - 10 -
21.08.2017 05:00:00 26,3 19,2 11 6 N 1013,4 10 0,0
21.08.2017 04:00:00 26,0 19,0 9 5 N - 10 -
21.08.2017 03:00:00 26,0 20,0 13 7 N - 10 -
21.08.2017 02:00:00 24,8 20,6 2 1 - 1014,0 10 -
21.08.2017 01:00:00 24,0 19,0 4 2 - - 10 -
21.08.2017 00:00:00 25,0 21,0 5 3 SSE - 10 -
20.08.2017 23:00:00 25,4 21,0 4 2 - 1014,3 10 0,0
20.08.2017 22:00:00 27,0 22,0 5 3 NNE - 10 -
20.08.2017 21:00:00 27,0 22,0 9 5 N - 10 -
20.08.2017 20:00:00 27,4 22,7 11 6 N 1013,9 10 -
20.08.2017 19:00:00 28,0 23,0 15 8 NNO - 10 -
20.08.2017 18:00:00 28,0 24,0 15 8 ONO - 10 -
20.08.2017 17:00:00 27,9 23,5 24 13 ONO 1013,5 10 0,0
20.08.2017 16:00:00 28,0 23,0 29 16 ONO - 10 -
20.08.2017 15:00:00 29,0 22,0 18 10 ONO - 10 -
20.08.2017 14:00:00 28,7 22,1 22 12 ONO 1014,1 10 -
20.08.2017 13:00:00 30,0 21,0 9 5 ONO - 10 -
20.08.2017 12:00:00 29,0 20,0 13 7 ONO - 10 -
20.08.2017 11:00:00 28,5 20,4 18 10 O 1015,0 10 0,0
20.08.2017 10:00:00 29,0 18,0 18 10 OSO - 10 -
20.08.2017 09:00:00 29,0 20,0 4 2 N - 10 -
20.08.2017 08:00:00 27,5 18,0 4 2 E 1014,1 10 -
20.08.2017 07:00:00 28,0 11,0 8 4 S - 10 -
20.08.2017 06:00:00 25,0 14,0 8 4 S - 10 -
20.08.2017 05:00:00 26,6 18,0 13 7 SO 1014,4 10 0,0
20.08.2017 04:00:00 26,0 18,0 13 7 OSO - 10 -
20.08.2017 03:00:00 - - - - - - - -
20.08.2017 02:00:00 25,5 19,1 8 4 SO 1015,0 10 -
20.08.2017 01:00:00 25,0 17,0 9 5 SSO - 10 -
20.08.2017 00:00:00 26,0 17,0 4 2 SSO - 10 -
19.08.2017 23:00:00 26,4 17,5 4 2 - 1015,9 10 0,0
19.08.2017 22:00:00 28,0 19,0 9 5 E - 10 -
19.08.2017 21:00:00 28,0 21,0 13 7 NE - 10 -
19.08.2017 20:00:00 28,4 20,3 13 7 NNE 1015,1 10 -
19.08.2017 19:00:00 29,0 21,0 9 5 NNE - 10 -
19.08.2017 18:00:00 30,0 20,0 8 4 NNE - 10 -
19.08.2017 17:00:00 30,3 20,0 9 5 N 1015,6 10 0,0
19.08.2017 16:00:00 31,0 18,0 9 5 NNE - 10 -
19.08.2017 15:00:00 30,0 19,0 9 5 NNE - 10 -
19.08.2017 14:00:00 29,9 20,2 16 9 NNE 1015,7 10 -
19.08.2017 13:00:00 30,0 21,0 16 9 NNE - 10 -
19.08.2017 12:00:00 29,0 20,0 15 8 NE - 10 -
19.08.2017 11:00:00 29,6 18,2 5 3 NNE 1016,3 10 0,0
19.08.2017 10:00:00 29,0 18,0 5 3 NNE - 10 -
19.08.2017 09:00:00 29,0 20,0 5 3 - - 10 -
19.08.2017 08:00:00 - - - - - - 10 -
19.08.2017 07:00:00 - - - - - - 10 -
19.08.2017 06:00:00 26,0 16,0 16 9 SO - 10 -
19.08.2017 05:00:00 24,1 16,2 9 5 SSO 1014,8 10 0,0
19.08.2017 04:00:00 26,0 17,0 9 5 ESE - 10 -
19.08.2017 03:00:00 24,0 18,0 8 4 ESE - 10 -
19.08.2017 02:00:00 25,1 19,7 2 1 - 1015,2 10 -
19.08.2017 01:00:00 26,0 21,0 9 5 SSO - 10 -
19.08.2017 00:00:00 27,0 22,0 16 9 SSO - 10 -
18.08.2017 23:00:00 26,5 21,7 2 1 - 1016,2 10 0,0
18.08.2017 22:00:00 27,0 20,0 5 3 SE - 10 -
18.08.2017 21:00:00 28,0 21,0 11 6 NE - 10 -
18.08.2017 20:00:00 28,1 20,9 18 10 ENE 1015,4 10 -
18.08.2017 19:00:00 29,0 22,0 21 11 NE - 10 -
18.08.2017 18:00:00 29,0 21,0 22 12 NNE - 10 -
18.08.2017 17:00:00 29,1 21,1 26 14 NE 1015,4 10 0,0
18.08.2017 16:00:00 29,0 22,0 24 13 NE - 10 -
18.08.2017 15:00:00 29,0 22,0 26 14 NE - 10 -
18.08.2017 14:00:00 28,8 21,3 24 13 NE 1016,3 10 -
18.08.2017 13:00:00 29,0 22,0 16 9 NNE - 10 -
18.08.2017 12:00:00 28,0 21,0 15 8 NNE - 10 -
18.08.2017 11:00:00 28,1 20,9 15 8 NNE 1017,2 10 0,0
18.08.2017 10:00:00 27,0 21,0 13 7 NNE - 10 -
18.08.2017 09:00:00 27,0 21,0 8 4 NNE - 10 -
18.08.2017 08:00:00 26,0 19,5 4 2 - 1016,7 10 -
18.08.2017 07:00:00 23,0 18,0 5 3 S - 10 -
18.08.2017 06:00:00 24,0 18,0 8 4 SE - 10 -
18.08.2017 05:00:00 24,0 17,6 9 5 SE 1015,8 10 0,0
18.08.2017 04:00:00 24,0 18,0 8 4 E - 10 -
18.08.2017 03:00:00 25,0 19,0 5 3 ESE - 10 -
18.08.2017 02:00:00 25,2 19,1 8 4 ENE 1016,7 10 -
18.08.2017 01:00:00 26,0 20,0 13 7 NE - 10 -
18.08.2017 00:00:00 26,0 20,0 11 6 NE - 10 -
17.08.2017 23:00:00 26,9 21,1 4 2 NE 1016,7 10 0,0
17.08.2017 22:00:00 27,0 21,0 5 3 N - 10 -
17.08.2017 21:00:00 27,0 21,0 5 3 N - 10 -
17.08.2017 20:00:00 27,3 21,3 5 3 N 1015,8 10 -
17.08.2017 19:00:00 28,0 22,0 13 7 N - 10 -
17.08.2017 18:00:00 28,0 22,0 16 9 NNE - 10 -
17.08.2017 17:00:00 28,5 21,5 18 10 NNE 1016,0 10 0,0
17.08.2017 16:00:00 29,0 21,0 21 11 N - 10 -
17.08.2017 15:00:00 30,0 18,0 18 10 N - 10 -
17.08.2017 14:00:00 29,4 19,3 13 7 N 1016,5 10 -
17.08.2017 13:00:00 29,0 20,0 13 7 NNE - 10 -
17.08.2017 12:00:00 28,0 22,0 11 6 NNE - 10 -
17.08.2017 11:00:00 27,6 21,7 8 4 NNE 1017,0 10 0,0
17.08.2017 10:00:00 27,0 21,0 8 4 N - 10 -
17.08.2017 09:00:00 26,0 20,0 4 2 O - 10 -

tt = Temperatura
td = dewpoint
ff = velocità del vento
dd = direzione del vento
ppp = reduced air pressure
vv = visibility
rr = precipitazioni

Stazioni seguenti

WeatherPro
AMSI
MeteoEarth